Regional Weather Roundup
Issued by NWS Bismarck, ND

Home | Current Version | Previous Version | Text Only | Print | Product List | Glossary On
Versions: 1 2 3 4 5 6 7 8 9 10 11 12 13 14 15 16 17 18 19 20 21 22 23 24 25 26 27 28 29 30 31 32 33 34 35 36 37 38 39 40 41 42 43 44 45 46 47 48 49 50
000
ASUS43 KBIS 261610
RWRBIS

NWR BROADCAST TEXT
NATIONAL WEATHER SERVICE BISMARCK ND
1100 AM CDT THU MAY 26 2016

NOTE: "FAIR" INDICATES FEW OR NO CLOUDS BELOW 12,000 FEET WITH NO
SIGNIFICANT WEATHER AND/OR OBSTRUCTIONS TO VISIBILITY.


CITY           SKY/WX    TMP DP  RH WIND       PRES   REMARKS
WILLISTON      CLOUDY    52  48  86 S6        29.82S
MINOT          LGT RAIN  58  55  90 NE9       29.79R FOG
MINOT AFB      CLOUDY    57  54  88 E9        29.79R
BISMARCK       MOSUNNY   66  50  56 VRB5      29.83S
DICKINSON      MOSUNNY   59  44  57 NW8       29.82F
GARRISON         N/A     59  52  77 W9        29.81R
HETTINGER ARPT SUNNY     64  42  44 W13       29.86F
JAMESTOWN      PTSUNNY   61  55  81 W9        29.80R
BEACH          PTSUNNY   55  48  76 NW12      29.88S
CARRINGTON     CLOUDY    61  55  82 W15       29.80S
HAZEN          FAIR      63  50  63 W10       29.84S
LINTON         FAIR      64  54  68 W5          N/A
MANDAN         FAIR      64  48  55 SW7       29.84S
OAKES            N/A    N/A N/A N/A MISG        N/A
RUGBY          CLOUDY    57  55  94 N7        29.78R
STANLEY        CLOUDY    55  55 100 SW5       29.83S
WATFORD CITY   PTSUNNY   57  50  77 W5        29.82F
$$

CITY           SKY/WX    TMP DP  RH WIND       PRES   REMARKS
GRAND FORKS    PTSUNNY   66  58  75 SW15      29.72S
GRAND FORKS AF CLOUDY    64  57  77 W9        29.73S
DEVILS LAKE    CLOUDY    58  54  86 NW7       29.77R
FARGO          CLOUDY    64  58  80 W9        29.77R
CANDO          CLOUDY    59  55  88 N9        29.78S
CAVALIER       PTSUNNY   63  55  77 W15       29.69S
GRAFTON        PTSUNNY   63  57  82 W14       29.73R
GWINNER        FAIR      66  55  68 W17G28    29.81S
LANGDON        CLOUDY    59  55  88 NW12      29.73R
ROLLA          PTSUNNY   59  57  94 NW14      29.77S
WALHALLA       FAIR      59  59 100 MISG      29.70R
$$

CITY           SKY/WX    TMP DP  RH WIND       PRES   REMARKS
ABERDEEN       SUNNY     68  51  54 W7        29.85S
MOBRIDGE       SUNNY     66  50  56 S10       29.83F
BUFFALO          N/A     62  42  47 W17G23    29.81F
RAPID CITY     MOSUNNY   65  44  46 N14       29.90S
GLASGOW        LGT RAIN  50  49  96 W7        29.84S FOG
SIDNEY         CLOUDY    61  48  63 SW10      29.81F
WOLF POINT     CLOUDY    59  50  72 NW12      29.81F
GLENDIVE       CLOUDY    52  48  87 S6        29.87F
MILES CITY     MOSUNNY   60  47  61 W10       29.87F
BAKER          CLOUDY    56  43  61 W13       29.88S
$$

CITY           SKY/WX    TMP DP  RH WIND       PRES   REMARKS
BILLINGS       MOSUNNY   63  43  48 NW13G18   29.94F
GREAT FALLS    CLOUDY    53  48  83 SW12      29.97S
REGINA         LGT RAIN  55  52  88 NE12G17   29.87R
ESTEVAN        LGT RAIN  55  54  94 E13       29.81R FOG
$$




USA.gov is the U.S. government's official web portal to all federal, state and local government web resources and services.